This demonstration page uses our WeatherBlox Daily Observations layout. Learn more.

Left ArrowRight Arrow

40.92945, -100.16068

Hourly Observations for October 11, 2016

Temp ( °F °C ) Dew Point ( °F °C ) Humidity (%) Winds ( mph kmh ) Pressure ( in mb ) Visibility ( mi km ) Precip ( " mm )
12:15 am 00:15 Clear 58 14.4 52 11 80 80 SSE 6 9 29.88 1012 10 16 N/A
12:35 am 00:35 Clear 57 13.8 51 10.6 81 81 N N/A 29.88 1012 10 16 N/A
12:55 am 00:55 Clear 57 13.8 51 10.7 82 82 N N/A 29.88 1012 10 16 N/A
1:15 am 01:15 Clear 58 14.4 52 10.9 80 80 SE 3 6 29.88 1012 10 16 N/A
1:35 am 01:35 Clear 58 14.6 52 11.1 80 80 S 6 9 29.88 1012 10 16 N/A
1:55 am 01:55 Clear 58 14.2 51 10.8 80 80 S 8 13 29.88 1012 10 16 N/A
2:15 am 02:15 Clear 56 13.3 51 10.4 83 83 S 8 13 29.88 1012 10 16 N/A
2:35 am 02:35 Clear 55 12.6 50 9.9 84 84 S 6 9 29.88 1012 10 16 N/A
2:55 am 02:55 Clear 55 12.5 50 9.9 84 84 SSW 3 6 29.88 1012 10 16 N/A
3:15 am 03:15 Clear 53 11.8 49 9.6 87 87 N N/A 29.91 1013 10 16 N/A
3:35 am 03:35 Clear 57 13.8 49 9.2 74 74 SSW 5 7 29.88 1012 10 16 N/A
3:55 am 03:55 Clear 57 14 50 9.8 76 76 SSW 5 7 29.88 1012 10 16 N/A
4:15 am 04:15 Clear 55 12.9 45 7.4 69 69 N N/A 29.88 1012 10 16 N/A
4:35 am 04:35 Clear 49 9.3 44 6.7 84 84 W 3 6 29.91 1013 10 16 N/A
4:55 am 04:55 Clear 46 8 44 6.6 91 91 N N/A 29.94 1014 10 16 N/A
5:15 am 05:15 Clear 46 7.8 43 6.3 90 90 N N/A 29.94 1014 10 16 N/A
5:35 am 05:35 Clear 46 7.9 44 6.5 91 91 N N/A 29.94 1014 10 16 N/A
5:55 am 05:55 Clear 47 8.3 44 6.8 90 90 N 6 9 29.94 1014 10 16 N/A
6:15 am 06:15 Clear 45 7.2 43 5.9 92 92 N N/A 29.94 1014 10 16 N/A
6:35 am 06:35 Clear 44 6.8 42 5.6 92 92 N N/A 29.94 1014 10 16 N/A
6:55 am 06:55 Clear 42 5.5 39 4.1 91 91 NW 3 6 30.00 1016 10 16 N/A
7:15 am 07:15 Clear 42 5.5 40 4.3 92 92 NNW 6 9 30.00 1016 7 11 N/A
7:35 am 07:35 Clear 44 6.6 41 5 90 90 NW 5 7 30.00 1016 10 16 N/A
7:55 am 07:55 Partly Cloudy 45 7.3 44 6.4 94 94 N 8 13 30.00 1016 10 16 N/A
8:15 am 08:15 Cloudy 50 9.9 47 8.5 91 91 N 12 19 29.97 1015 10 16 N/A
8:35 am 08:35 Cloudy 50 10.1 48 8.7 91 91 N 12 19 29.97 1015 10 16 N/A
8:55 am 08:55 Cloudy 51 10.5 48 9 91 91 NNE 10 17 29.97 1015 10 16 N/A
9:15 am 09:15 Cloudy 51 10.6 48 8.7 88 88 N 13 20 30.00 1016 10 16 N/A
9:35 am 09:35 Cloudy 52 11 48 8.7 86 86 NNE 8 13 30.00 1016 10 16 N/A
9:55 am 09:55 Cloudy 53 11.4 48 8.9 85 85 N 10 17 30.00 1016 10 16 N/A
10:15 am 10:15 Cloudy 52 11.3 47 8.6 84 84 NNE 12 19 30.00 1016 10 16 N/A
10:35 am 10:35 Cloudy N/A N/A N/A NNE 12 19 N/A 10 16 0.03 0.76
10:55 am 10:55 Cloudy 53 11.5 47 8.3 81 81 N 14 22 30.00 1016 10 16 0.03 0.76
11:15 am 11:15 Cloudy 53 11.9 47 8.3 79 79 N 10 17 30.00 1016 10 16 N/A
11:35 am 11:35 Cloudy 54 12 46 8 77 77 N 14 22 30.00 1016 10 16 N/A
11:55 am 11:55 Mostly Cloudy 54 12.4 46 7.6 73 73 NNE 13 20 30.00 1016 10 16 N/A
12:35 pm 12:35 Partly Cloudy 56 13.4 45 7.4 67 67 N 10 17 29.97 1015 10 16 N/A
12:55 pm 12:55 Partly Cloudy 55 12.7 45 7.2 69 69 NNE 12 19 29.97 1015 10 16 N/A
1:15 pm 13:15 Sunny 55 12.7 45 7.3 70 70 N 8 13 30.00 1016 10 16 N/A
1:35 pm 13:35 Partly Cloudy with Light Rain 55 12.9 45 7.4 69 69 NNW 6 9 30.00 1016 10 16 N/A
1:55 pm 13:55 Partly Cloudy 56 13.1 45 7.3 68 68 N 6 9 30.00 1016 10 16 N/A
2:15 pm 14:15 Sunny 58 14.3 45 7.4 63 63 N 5 7 29.94 1014 10 16 N/A
2:35 pm 14:35 Sunny 58 14.6 45 7.3 62 62 NNE 7 11 29.94 1014 7 11 N/A
2:55 pm 14:55 Sunny 59 15.1 45 7.4 60 60 NE 6 9 29.94 1014 10 16 N/A
3:15 pm 15:15 Sunny 59 15.2 45 7.4 60 60 N 7 11 29.94 1014 10 16 N/A
3:35 pm 15:35 Sunny 60 15.6 45 7.1 57 57 NE 10 17 29.91 1013 10 16 N/A
3:55 pm 15:55 Sunny 61 16 45 7.2 56 56 N 5 7 29.94 1014 10 16 N/A
4:15 pm 16:15 Hazy 61 16 45 7.2 56 56 NNE 6 9 29.94 1014 5 8 N/A
4:35 pm 16:35 Sunny 60 15.7 45 7.2 57 57 N 7 11 29.94 1014 7 11 N/A
4:55 pm 16:55 Sunny 60 15.7 45 7.3 58 58 NNE 7 11 29.94 1014 10 16 N/A
5:15 pm 17:15 Sunny 61 16.2 46 7.5 57 57 NNE 8 13 29.91 1013 10 16 N/A
5:35 pm 17:35 Sunny 60 15.6 45 7.2 58 58 N 9 15 29.94 1014 10 16 N/A
5:55 pm 17:55 Hazy 59 15 44 6.8 58 58 N 10 17 29.94 1014 3 4 N/A
6:15 pm 18:15 Sunny 57 14.1 44 6.6 61 61 NNE 8 13 29.97 1015 10 16 N/A
6:35 pm 18:35 Sunny 56 13.1 43 6.1 63 63 NNE 10 17 30.00 1016 10 16 N/A
6:55 pm 18:55 Sunny 54 12.1 42 5.7 65 65 NNE 8 13 30.00 1016 10 16 N/A
7:15 pm 19:15 Clear 52 11 42 5.3 68 68 NNE 9 15 30.00 1016 10 16 N/A
7:35 pm 19:35 Clear 50 10.2 42 5.3 72 72 NNE 12 19 30.00 1016 10 16 N/A
7:55 pm 19:55 Clear 49 9.6 41 5.1 74 74 NNE 10 17 30.06 1018 10 16 N/A
8:15 pm 20:15 Clear 48 9.1 41 5 76 76 NNE 10 17 30.06 1018 10 16 N/A
8:35 pm 20:35 Clear 47 8.6 40 4.6 76 76 N 16 26 30.06 1018 10 16 N/A
8:55 pm 20:55 Mostly Cloudy 48 8.8 39 4.1 73 73 N 15 24 30.06 1018 10 16 N/A
9:15 pm 21:15 Cloudy 48 8.7 38 3.6 71 71 N 22 35 30.06 1018 10 16 N/A
9:35 pm 21:35 Cloudy 47 8.2 38 3.1 71 71 N 18 30 30.09 1019 10 16 N/A
9:55 pm 21:55 Mostly Cloudy 46 7.8 37 3 72 72 NNW 13 20 30.18 1022 10 16 N/A
10:15 pm 22:15 Mostly Cloudy 46 7.5 37 3 73 73 N 7 11 30.21 1023 10 16 N/A
10:35 pm 22:35 Partly Cloudy 45 7 37 3 76 76 N 5 7 30.21 1023 10 16 N/A
10:55 pm 22:55 Clear 45 7 37 2.8 75 75 NNE 12 19 30.18 1022 10 16 N/A
11:15 pm 23:15 Clear 44 6.8 37 2.6 75 75 NNE 10 17 30.15 1021 10 16 N/A
11:35 pm 23:35 Clear 44 6.5 36 2.4 75 75 NNE 13 20 30.15 1021 10 16 N/A
11:55 pm 23:55 Partly Cloudy 44 6.7 36 2.2 73 73 N 14 22 30.15 1021 10 16 N/A

Powered by AerisWeather